Tracking 30703 objects as of 14-Jun-2025
HD Live streaming from Space Station
objects crossing your sky now

STARLINK-11072

Track STARLINK-11072 now!
10-day predictions
STARLINK-11072 is classified as:


NORAD ID: 58705
Int'l Code: 2024-002A
Perigee: 366.2 km
Apogee: 367.6 km
Inclination: 53.2 °
Period: 91.7 minutes
Semi major axis: 6737 km
RCS: Unknown
Launch date: January 3, 2024
Source: United States (US)
Launch site: AIR FORCE WESTERN TEST RANGE (AFWTR)
Your satellite tracking list
Your tracking list is empty




NASA's NSSDC Master Catalog

Two Line Element Set (TLE):
1 58705U 24002A   25162.43443168  .00002258  00000-0  23494-4 0  9995
2 58705  53.1574 171.2104 0001024  92.9896 267.1239 15.69703777 83786
Source of the keplerian elements: AFSPC